Pittsburgh, PA

11:06 AM EST on December 14, 2019 (GMT -0500)
Pittsburgh International

Weather History for KPIT - October, 2019

Change the Weather History Date:

Wednesday, October 9, 2019

  Actual Average Record
Temperature  
Mean Temperature 57 °F 55 °F  
Max Temperature 68 °F 65 °F 87 °F (1939)
Min Temperature 46 °F 45 °F 30 °F (2001)
Degree Days  
Heating Degree Days 8 11  
Month to date heating degree days 48 84  
Since 1 July heating degree days 56 198  
Cooling Degree Days 0 0  
Month to date cooling degree days 37 6  
Year to date cooling degree days 934 734  
Growing Degree Days 7 (Base 50)    
Moisture  
Dew Point 44 °F    
Average Humidity 65    
Maximum Humidity 90    
Minimum Humidity 42    
Precipitation  
Precipitation 0.00 in 0.08 in 1.01 in (1936)
Month to date precipitation 1.94 0.67  
Year to date precipitation 42.03 30.49  
Snow  
Snow 0.00 in 0.00 in T in (1945)
Month to date snowfall 0.0 0.0  
Snow Depth 0.00 in    
Sea Level Pressure  
Sea Level Pressure 30.23 in    
Wind  
Wind Speed 4 mph ()    
Max Wind Speed 12 mph    
Max Gust Speed 16 mph    
Visibility 10.0 miles    
Events      
T = Trace of Precipitation, MM = Missing Value Source: Averaged Metar Reports

Daily Weather History Graph

Daily Weather History Graph

Search for Another Location

Airport or City:

Astronomy

Oct. 09, 2019 Rise Set
Actual Time 7:25 AM EDT 6:50 PM EDT
Civil Twilight 6:57 AM EDT 7:17 PM EDT
Nautical Twilight 6:26 AM EDT 7:49 PM EDT
Astronomical Twilight 5:54 AM EDT 8:20 PM EDT
Moon 5:22 PM EDT (10/9) 3:09 AM EDT (10/9)
Length of Visible Light 12h 19m
Length of Day
11h 25m
Waxing Gibbous, 85% of the Moon is Illuminated
Oct 9
Waxing Gibbous
Oct 13
Full
Oct 21
Last Quarter
Oct 27
New
Nov 4
First Quarter

Hourly Weather History & Observations

Time (EDT) Temp. Windchill Dew Point Humidity Pressure Visibility Wind Dir Wind Speed Gust Speed Precip Events Conditions
12:51 AM 52.0 °F - 44.1 °F 74% 30.23 in 10.0 mi ENE 4.6 mph - N/A   Mostly Cloudy
1:51 AM 51.1 °F - 45.0 °F 80% 30.22 in 10.0 mi ENE 4.6 mph - N/A   Mostly Cloudy
2:51 AM 48.9 °F - 44.1 °F 83% 30.22 in 10.0 mi ENE 3.5 mph - N/A   Scattered Clouds
3:51 AM 46.9 °F - 44.1 °F 90% 30.22 in 10.0 mi ENE 3.5 mph - N/A   Partly Cloudy
4:51 AM 46.9 °F - 43.0 °F 86% 30.23 in 10.0 mi Calm Calm - N/A   Partly Cloudy
5:51 AM 46.0 °F - 43.0 °F 89% 30.24 in 10.0 mi Calm Calm - N/A   Partly Cloudy
6:51 AM 46.0 °F 44.8 °F 42.1 °F 86% 30.25 in 10.0 mi ENE 3.5 mph - N/A   Partly Cloudy
7:51 AM 46.0 °F 43.9 °F 43.0 °F 89% 30.27 in 10.0 mi ENE 4.6 mph - N/A   Partly Cloudy
8:51 AM 48.9 °F - 44.1 °F 83% 30.28 in 10.0 mi East 4.6 mph - N/A   Partly Cloudy
9:51 AM 53.1 °F - 44.1 °F 71% 30.29 in 10.0 mi ENE 8.1 mph - N/A   Partly Cloudy
10:51 AM 57.0 °F - 44.1 °F 62% 30.29 in 10.0 mi East 10.4 mph - N/A   Clear
11:51 AM 60.1 °F - 43.0 °F 53% 30.27 in 10.0 mi ESE 8.1 mph - N/A   Clear
12:51 PM 63.0 °F - 44.1 °F 50% 30.26 in 10.0 mi East 4.6 mph - N/A   Partly Cloudy
1:51 PM 66.0 °F - 43.0 °F 43% 30.23 in 10.0 mi NE 6.9 mph - N/A   Partly Cloudy
2:51 PM 66.0 °F - 44.1 °F 45% 30.22 in 10.0 mi ENE 5.8 mph - N/A   Partly Cloudy
3:51 PM 66.9 °F - 43.0 °F 42% 30.20 in 10.0 mi East 8.1 mph - N/A   Clear
4:51 PM 68.0 °F - 45.0 °F 43% 30.19 in 10.0 mi NE 9.2 mph - N/A   Clear
5:51 PM 66.9 °F - 46.0 °F 47% 30.19 in 10.0 mi ENE 4.6 mph - N/A   Clear
6:51 PM 64.9 °F - 46.0 °F 50% 30.20 in 10.0 mi NE 6.9 mph - N/A   Clear
7:51 PM 61.0 °F - 45.0 °F 56% 30.21 in 10.0 mi ENE 6.9 mph - N/A   Clear
8:51 PM 59.0 °F - 43.0 °F 55% 30.22 in 10.0 mi East 6.9 mph - N/A   Clear
9:51 PM 55.9 °F - 43.0 °F 62% 30.23 in 10.0 mi East 6.9 mph - N/A   Clear
10:51 PM 55.0 °F - 43.0 °F 64% 30.24 in 10.0 mi East 6.9 mph - N/A   Clear
11:51 PM 53.1 °F - 43.0 °F 69% 30.23 in 10.0 mi East 5.8 mph - N/A   Clear